Voltar ao catálogo

STARLINK-31373

AtivoComunicaçõesVLEO
NORAD 58965·PAYLOAD·🇺🇸 United States

Lançado Feb 15, 2024 de Vandenberg Space Force Base

Loading…

Próximas Passagens (próximas 24 horas)

TLE

AtualizadoSource: CelesTrak SupGP

Época: Sep 14, 2026, 21:10 UTC

1 58965C 24031A   26257.88243056 -.00048055  00000+0 -14197-2 0  2575
2 58965  53.1564 135.6998 0001359  98.6430 155.7772 15.34417491    12

Acompanhe STARLINK-31373 em tempo real com AllMySat

Download on the App Store